Hauptseite
METAR-TAF:

METAR-TAF

Flughäfen :

Bristol Airport

Bristol, England

Breite: 51-23N, Länge: 002-43W, Höhe: 189 m

Beobachtung

Neuester Wetterbericht von vor 11 Minuten, um 12:20 UTC
Wind 7 kt aus Nord/Nordost, variierte zwischen Nord und Ost
Temperatur 22°C
Luftfeuchtigkeit 50%
Luftdruck 1036 hPa
Sichtweite 10 km oder mehr

METAR: EGGD 271220Z AUTO 02007KT 350V080 9999 NCD 22/11 Q1036

Zeit: 13:31 (12:31 UTC)

Prognose

Neuester Wetterbericht von vor 1 Stunde und 25 Minuten, um 11:06 UTC
Gültige Prognose vom 27 um 12 UTC bis 28 um 12 UTC
Wind 5 kt aus Nordost
Sichtweite 10 km oder mehr
Leicht bewölkt in der Höhe von 4500 ft
Wahrscheinlichkeit 30%
vom 28 um 00 UTC bis 28 um 07 UTC
Sichtweite: 8000 m

TAF: EGGD 271106Z 2712/2812 04005KT 9999 FEW045 PROB30 2800/2807 8000

Wetterbeobachtungen und Prognosen von mehr als 4000 Flughäfen (METAR und TAF Bericht).

Die verfügbaren Stationen werden durch gelbe und rote Markierungen auf der Karte dargestellt.

Führen Sie die Maus auf sie, um den Namen der Station zu sehen.

Darauf klicken, um die Beobachtung von Wetterbeobachtungen und Prognosen zu sehen.

Um die Karte zu ändern : klicken Sie auf den grünen Tasten mit einem schwarzen Kreuz Zum Vergrößern, auf den grünen Button mit einem Gedankenstrich zu verkleinern, oder auf die grünen Pfeile für benachbarte Karten.


METAR-TAF: